{"data":{"norad_id":63217,"intl_designator":"2025-052H","name":"TEVEL2-1","alt_names":[],"object_type":"PAYLOAD","status":"ACTIVE","operator":null,"country":"ISRA","launch_date":"2025-03-15","launch_site_code":"AFWTR","launch_vehicle":null,"mission":null,"orbit_class":"UNKNOWN","rcs_meters":null,"size_class":null,"mass_kg":null,"dimensions":null,"purposes":["comms"],"wikipedia_slug":null,"has_3d_model":false,"image_url":null,"decayed_at":null,"tle_current":{"epoch":"2026-09-19T03:50:35.111904Z","epoch_age_seconds":130891,"freshness":"FRESH","line1":"1 63217U 25052H   26262.16012861  .00013111  00000+0  36695-3 0  9994","line2":"2 63217  97.3727 158.2529 0004201 121.9351 238.2303 15.36766162 84519","mean_motion":15.36766162,"eccentricity":0.0004201,"inclination_deg":97.3727,"raan_deg":158.2529,"arg_perigee_deg":121.9351,"mean_anomaly_deg":238.2303,"bstar":0.00036695,"rev_number":8451,"period_min":93.70326049644,"perigee_km":452.80864690933,"apogee_km":458.55041956055,"semimajor_km":6833.8165332349,"source":"CELESTRAK","updated_at":"2026-09-20T09:00:45.264151Z"}}}